Location: Waco, TX
(31.5480°N, 97.1670°W)
Time: 22:14:57
(UTC-05:00)

ISS - Pass Details

Date: 19 May 2017
Orbit: 402 x 409 km, 51.6° (Epoch: 23 May)

Event Time Altitude Azimuth Distance (km) Brightness Sun altitude
Rises 22:04:59 0° 179° (S) 2,314 - -19.6°
Reaches altitude 10° 22:08:37 10° 136° (SE) 1,459 - -20.2°
Maximum altitude 22:09:16 10° 125° (SE) 1,434 - -20.3°
Drops below altitude 10° 22:09:55 10° 114° (ESE) 1,461 - -20.4°
Sets 22:13:34 0° 71° (ENE) 2,324 - -21.0°
